Location: Marshall
(39.8477°N, 87.1868°W)
Time: 03:34:54
(UTC+00:00)

BlueWalker 3 - Pass Details

Date: 16 May 2026
Orbit: 447 x 456 km, 53.2° (Epoch: 9 June)

Event Time Altitude Azimuth Distance (km) Brightness Sun altitude
Exits shadow 06:54:11 15° 339° (NNW) 1,298 4.5 -28.9°
Maximum altitude 06:54:15 15° 340° (NNW) 1,297 4.6 -28.9°
Drops below altitude 10° 06:56:22 10° 17° (NNE) 1,575 5.4 -28.7°
Sets 06:59:14 0° 42° (NE) 2,449 6.5 -28.5°
